Probability
0 0 0 0 0 0 0 0 0 0 0 0 0 0 0 0 0 0 0 0 0 0 0 0 0 0 3 23 23 32 26 29 29 23 19 29 29 26 16 10 3 3 3 0
0 0 0 0 0 0 0 0 0 0 0 0 0 0 0 0 0 0 0 0 0 0 0 0 0 3 3 6 19 19 23 26 23 26 23 26 26 23 16 13 6 3 0 0
0 0 0 0 0 0 0 0 0 0 0 0 0 0 0 0 0 0 0 0 0 0 0 0 0 0 0 0 6 6 10 16 23 23 26 13 23 10 6 10 6 3 0 0
0 0 0 0 0 0 0 0 0 0 0 0 0 0 0 0 0 0 0 0 0 0 0 0 0 0 0 0 0 3 3 6 6 13 13 16 16 19 13 10 10 3 0 0
0 0 0 0 0 0 0 0 0 0 0 0 0 0 0 0 0 0 0 0 0 0 0 0 0 0 0 0 0 0 0 3 3 3 6 10 10 6 3 3 3 3 3 3
0 0 0 0 0 0 0 0 0 0 0 0 0 0 0 0 0 0 0 0 0 0 0 0 0 0 0 0 0 0 0 0 0 0 3 3 3 3 3 3 0 3 3 3
0 0 0 0 0 0 0 0 0 0 0 0 0 0 0 0 0 0 0 0 0 0 0 0 0 0 0 0 0 0 0 0 0 0 0 0 0 0 0 0 0 0 0 0
0 0 0 0 0 0 0 0 0 0 0 0 0 0 0 0 0 0 0 0 0 0 0 0 0 0 0 0 0 0 0 0 0 0 0 0 0 0 0 0 0 0 0 0
0 0 0 0 0 0 0 0 0 0 0 0 0 0 0 0 0 0 0 0 0 0 0 0 0 0 0 0 0 0 0 0 0 0 0 0 0 0 0 0 0 0 0 0
0 0 0 0 0 0 0 0 0 0 0 0 0 0 0 0 0 0 0 0 0 0 0 0 0 0 0 0 0 0 0 0 0 0 0 0 0 0 0 0 0 0 0 0
0 0 0 0 0 0 0 0 0 0 0 0 0 0 0 0 0 0 0 0 0 0 0 0 0 0 0 0 0 0 0 0 0 0 0 0 0 0 0 0 0 0 0 0
0 0 0 0 0 0 0 0 0 0 0 0 0 0 0 0 0 0 0 0 0 0 0 0 0 0 0 0 0 0 0 0 0 0 0 0 0 0 0 0 0 0 0 0
0 0 0 0 0 0 0 0 0 0 0 0 0 0 0 0 0 0 0 0 0 0 0 0 0 0 0 0 0 0 0 0 0 0 0 0 0 0 0 0 0 0 0 0
0 0 0 0 0 0 0 0 0 0 0 0 0 0 0 0 0 0 0 0 0 0 0 0 0 0 0 0 0 0 0 0 0 0 0 0 0 0 0 0 0 0 0 0
0 0 0 0 0 0 0 0 0 0 0 0 0 0 0 0 0 0 0 0 0 0 0 0 0 0 0 0 0 0 0 0 0 0 0 0 0 0 0 0 0 0 0 0
0 0 0 0 0 0 0 0 0 0 0 0 0 0 0 0 0 0 0 0 0 0 0 0 0 0 0 0 0 0 0 0 0 0 0 0 0 0 0 0 0 0 0 0
0 0 0 0 0 0 0 0 0 0 0 0 0 0 0 0 0 0 0 0 0 0 0 0 0 0 0 0 0 0 0 0 0 0 0 0 0 0 0 0 0 0 0 0
0 0 0 0 0 0 0 0 0 0 0 0 0 0 0 0 0 0 0 0 0 0 0 0 0 0 0 0 0 0 0 0 0 0 0 0 0 0 0 0 0 0 0 0
0 0 0 0 0 0 0 0 0 0 0 0 0 0 0 0 0 0 0 0 0 0 0 0 0 0 0 0 0 0 0 0 0 0 0 0 0 0 0 0 0 0 0 0
0 0 0 0 0 0 0 0 0 0 0 0 0 0 0 0 0 0 0 0 0 0 0 0 0 0 0 0 0 0 0 0 0 0 0 0 0 0 0 0 0 0 0 0
0 0 0 0 0 0 0 0 0 0 0 0 0 0 0 0 0 0 0 0 0 0 0 0 0 0 0 0 0 0 0 0 0 0 0 0 0 0 0 0 0 0 0 0
0 0 0 0 0 0 0 0 0 0 0 0 0 0 0 0 0 0 0 0 0 0 0 0 0 0 0 0 0 0 0 0 0 0 0 0 0 0 0 0 0 0 0 0
0 0 0 0 0 0 0 0 0 0 0 0 0 0 0 0 0 0 0 0 0 0 0 0 0 0 0 0 0 0 0 0 0 0 0 0 0 0 0 0 0 0 0 0
0 0 0 0 0 0 0 0 0 0 0 0 0 0 0 0 0 0 0 0 0 0 0 0 0 0 0 0 0 0 0 0 0 0 0 0 0 0 0 0 0 0 0 0
0 0 0 0 0 0 0 0 0 0 0 0 0 0 0 0 0 0 0 0 0 0 0 0 0 0 0 0 0 0 0 0 0 0 0 0 0 0 0 0 0 0 0 0
0 0 0 0 0 0 0 0 0 0 0 0 0 0 0 0 0 0 0 0 0 0 0 0 0 0 0 0 0 0 0 0 0 0 0 0 0 0 0 0 0 0 0 0
Height
5633 5642 5650 5659 5667 5676 5684 5691 5698 5705 5712 5719 5725 5732 5737 5742 5748 5755 5762 5769 5776 5782 5788 5794 5799 5804 5808 5812 5816 5819 5823 5825 5828 5831 5833 5835 5837 5838 5840 5841 5842 5842 5843 5843
5633 5641 5649 5656 5664 5672 5679 5686 5693 5700 5706 5712 5718 5724 5729 5735 5742 5749 5755 5762 5769 5775 5780 5786 5791 5796 5800 5804 5808 5811 5814 5817 5820 5823 5825 5827 5829 5831 5832 5833 5834 5835 5835 5835
5633 5641 5647 5654 5661 5669 5676 5683 5690 5696 5702 5706 5712 5718 5724 5730 5735 5741 5748 5754 5761 5767 5772 5777 5782 5787 5791 5795 5799 5802 5806 5809 5812 5814 5817 5819 5821 5822 5824 5825 5826 5826 5827 5827
5634 5640 5647 5653 5660 5666 5673 5680 5686 5692 5697 5702 5708 5713 5719 5724 5729 5735 5741 5747 5753 5759 5763 5768 5773 5777 5782 5786 5790 5793 5797 5800 5803 5805 5808 5810 5812 5814 5815 5816 5817 5818 5818 5818
5636 5640 5646 5652 5658 5664 5671 5677 5683 5688 5693 5698 5703 5708 5715 5718 5723 5730 5735 5739 5744 5749 5754 5759 5763 5768 5772 5776 5780 5784 5787 5790 5793 5796 5798 5800 5802 5804 5806 5807 5808 5808 5809 5809
5637 5641 5646 5651 5656 5662 5668 5674 5679 5684 5688 5694 5698 5702 5709 5713 5718 5722 5726 5730 5735 5739 5744 5748 5753 5758 5763 5767 5770 5774 5777 5780 5783 5786 5788 5790 5792 5794 5796 5797 5798 5798 5799 5799
5638 5642 5646 5650 5655 5660 5665 5671 5676 5680 5683 5689 5693 5697 5704 5708 5711 5714 5717 5721 5725 5729 5734 5739 5744 5749 5753 5757 5760 5763 5767 5770 5773 5775 5778 5780 5782 5784 5785 5786 5787 5788 5788 5788
5639 5642 5646 5650 5654 5658 5663 5668 5674 5678 5681 5685 5688 5692 5699 5702 5704 5706 5709 5713 5717 5721 5726 5730 5735 5739 5743 5747 5750 5754 5757 5760 5762 5765 5767 5769 5771 5773 5774 5775 5776 5777 5777 5777
5640 5642 5645 5648 5652 5656 5660 5664 5669 5673 5676 5680 5684 5688 5692 5695 5697 5699 5702 5706 5709 5713 5717 5721 5725 5730 5733 5737 5741 5744 5747 5750 5752 5755 5757 5759 5760 5762 5763 5764 5765 5765 5766 5766
5640 5642 5644 5646 5650 5653 5657 5661 5665 5669 5672 5676 5679 5683 5686 5688 5691 5694 5696 5699 5702 5706 5709 5713 5717 5721 5724 5727 5731 5734 5737 5740 5742 5744 5746 5748 5750 5751 5752 5753 5754 5755 5755 5755
5639 5642 5644 5645 5648 5651 5655 5658 5661 5665 5668 5672 5675 5680 5680 5683 5685 5688 5690 5693 5695 5699 5702 5705 5708 5712 5715 5718 5721 5724 5727 5729 5732 5734 5736 5737 5739 5740 5741 5742 5743 5744 5744 5744
5638 5640 5642 5644 5646 5648 5651 5654 5658 5661 5664 5667 5670 5676 5675 5677 5679 5682 5684 5686 5689 5691 5694 5697 5700 5703 5706 5709 5712 5714 5717 5719 5721 5723 5725 5726 5728 5729 5730 5731 5732 5732 5733 5733
5637 5639 5640 5641 5645 5645 5647 5650 5653 5656 5659 5661 5665 5671 5670 5672 5674 5675 5678 5680 5682 5684 5687 5689 5692 5694 5697 5699 5702 5704 5706 5709 5710 5712 5714 5715 5717 5718 5719 5720 5721 5721 5722 5722
5635 5636 5638 5640 5640 5642 5644 5647 5649 5651 5653 5656 5660 5663 5665 5666 5667 5669 5671 5674 5676 5678 5680 5682 5684 5686 5688 5690 5692 5694 5696 5698 5700 5701 5703 5704 5706 5707 5708 5709 5709 5710 5710 5710
5632 5633 5634 5635 5636 5637 5639 5642 5644 5646 5649 5651 5654 5656 5659 5659 5661 5663 5665 5667 5669 5671 5673 5675 5676 5678 5680 5681 5683 5685 5686 5688 5689 5691 5692 5693 5694 5695 5696 5697 5698 5698 5699 5699
5628 5629 5630 5631 5632 5633 5635 5637 5639 5641 5643 5645 5647 5650 5651 5652 5654 5657 5659 5660 5662 5664 5666 5667 5668 5670 5671 5673 5674 5675 5677 5678 5679 5680 5681 5682 5683 5684 5685 5686 5686 5687 5687 5688
5623 5625 5626 5627 5627 5628 5631 5633 5634 5636 5638 5639 5641 5644 5644 5647 5648 5650 5652 5653 5655 5656 5658 5659 5660 5662 5663 5664 5665 5666 5667 5668 5669 5670 5671 5672 5673 5674 5674 5675 5675 5676 5677 5677
5619 5619 5620 5621 5623 5624 5628 5628 5629 5630 5632 5633 5635 5637 5638 5640 5642 5643 5644 5646 5647 5649 5650 5651 5652 5653 5654 5656 5657 5658 5659 5659 5660 5661 5661 5662 5663 5663 5664 5664 5665 5666 5666 5667
5613 5614 5615 5617 5617 5619 5621 5622 5623 5624 5626 5627 5629 5631 5632 5633 5635 5636 5637 5638 5640 5641 5642 5643 5644 5645 5646 5647 5648 5649 5649 5650 5651 5651 5652 5653 5653 5654 5654 5655 5655 5656 5656 5657
5608 5609 5611 5611 5612 5614 5617 5617 5617 5620 5620 5622 5623 5624 5626 5627 5629 5630 5630 5631 5632 5633 5634 5635 5636 5637 5638 5639 5639 5640 5641 5641 5642 5643 5643 5644 5644 5645 5645 5646 5646 5647 5647 5648
5604 5604 5605 5606 5606 5608 5610 5610 5612 5615 5616 5616 5617 5618 5619 5620 5622 5623 5623 5624 5625 5626 5626 5627 5628 5629 5629 5630 5631 5632 5632 5633 5634 5634 5635 5635 5636 5636 5637 5637 5638 5638 5639 5639
5599 5599 5600 5600 5601 5604 5603 5604 5606 5607 5608 5609 5610 5611 5612 5614 5615 5616 5617 5617 5618 5618 5619 5620 5620 5621 5622 5622 5623 5624 5624 5625 5626 5626 5627 5627 5628 5628 5628 5629 5629 5630 5630 5631
5594 5595 5594 5595 5597 5597 5597 5598 5599 5600 5601 5602 5604 5605 5606 5607 5608 5609 5610 5610 5611 5611 5612 5613 5613 5614 5615 5615 5616 5617 5617 5618 5618 5619 5619 5620 5620 5620 5621 5621 5622 5622 5623 5623
5588 5588 5588 5589 5589 5590 5591 5592 5593 5594 5595 5596 5597 5598 5599 5600 5601 5602 5603 5603 5604 5605 5605 5606 5606 5607 5608 5608 5609 5609 5610 5611 5611 5612 5612 5612 5613 5613 5613 5614 5614 5615 5615 5616
5583 5583 5583 5583 5584 5584 5585 5585 5586 5587 5588 5589 5590 5591 5592 5593 5594 5595 5596 5597 5597 5598 5598 5599 5599 5600 5601 5601 5602 5603 5603 5604 5604 5605 5605 5605 5606 5606 5606 5607 5607 5607 5608 5608
5577 5578 5578 5578 5578 5578 5579 5579 5580 5581 5582 5583 5584 5584 5585 5586 5587 5588 5589 5590 5591 5591 5592 5592 5593 5593 5594 5595 5595 5596 5596 5597 5597 5598 5598 5598 5599 5599 5599 5599 5600 5600 5600 5600
Wind_Speed
36 38 40 41 43 43 43 44 45 46 46 47 47 48 50 53 55 56 57 56 54 52 51 50 49 48 48 47 46 45 45 45 45 44 43 42 41 41 39 39 39 38 38 37
33 37 38 39 40 41 42 42 42 43 44 45 46 47 48 52 53 55 55 55 54 53 52 51 50 50 50 49 49 48 48 48 47 46 45 45 44 43 43 42 41 41 41 40
30 33 35 36 37 38 39 40 41 40 41 43 44 45 45 48 52 54 54 54 54 53 52 51 51 51 51 50 50 50 50 49 49 49 48 47 46 46 45 45 44 43 43 43
28 30 32 33 34 36 36 37 38 38 39 40 42 42 43 43 48 51 53 53 53 53 52 52 53 52 52 51 51 51 51 51 51 50 50 49 49 48 48 47 47 46 46 46
24 27 30 31 32 33 35 35 35 36 37 38 40 41 41 41 42 46 49 52 53 52 52 53 53 53 53 53 53 52 52 52 52 52 52 52 51 50 50 49 49 48 48 48
22 25 29 30 30 31 33 34 33 34 35 35 36 38 38 38 38 41 45 48 50 52 51 52 53 53 53 53 53 53 53 53 53 53 53 52 52 51 51 51 51 50 50 49
19 24 27 29 29 30 32 33 32 32 34 34 33 35 34 33 34 37 41 44 46 48 49 51 52 52 51 52 52 53 54 53 53 53 53 53 53 53 52 52 52 52 51 50
18 21 25 27 28 28 30 31 32 33 33 33 32 33 31 30 31 34 37 40 42 44 46 47 48 50 51 50 51 51 52 52 52 51 51 51 52 52 52 52 52 51 50 50
17 20 23 25 26 27 29 30 30 31 31 31 31 30 29 29 30 32 34 36 38 41 43 45 46 47 49 50 50 50 50 51 50 50 50 50 50 50 51 50 50 50 50 49
15 19 20 23 25 26 28 29 29 30 30 30 29 28 28 28 28 30 31 34 35 37 39 42 43 45 46 47 49 49 49 49 49 49 49 49 49 49 49 49 49 49 48 48
14 16 18 21 23 24 26 28 28 28 30 29 29 27 26 27 27 28 29 31 33 34 36 38 40 42 44 45 46 47 48 48 49 49 49 49 49 49 49 49 49 49 48 48
13 16 17 19 22 23 25 27 27 27 27 27 27 26 25 25 26 27 28 29 31 33 34 36 38 40 42 43 45 46 47 48 48 49 49 49 49 49 49 49 48 48 47 47
13 16 17 19 21 24 25 25 26 27 27 27 27 26 25 25 25 26 27 28 30 31 33 34 35 37 39 41 43 44 45 46 47 48 49 49 49 49 49 48 48 48 47 47
12 15 17 19 20 22 25 26 26 27 27 27 26 25 23 24 26 27 28 29 29 30 31 33 34 36 37 38 40 42 43 44 45 46 46 47 47 47 47 48 47 47 46 46
14 15 16 18 20 21 25 26 27 28 27 28 26 24 23 25 26 27 28 29 30 30 31 32 33 34 35 36 37 38 40 41 42 43 44 44 45 45 45 45 45 44 44 43
16 17 17 18 20 21 24 25 26 27 28 27 27 24 25 27 27 27 28 29 29 29 30 31 32 33 33 34 35 36 37 39 40 41 42 42 42 42 42 42 42 42 41 41
16 17 19 19 19 21 22 22 23 24 25 26 26 25 27 27 27 26 27 28 29 29 29 30 31 32 33 34 34 35 36 37 38 39 40 40 41 41 41 40 40 40 39 39
17 18 19 19 20 21 20 21 22 23 24 25 25 26 26 26 26 27 28 28 29 29 30 30 31 31 32 33 33 34 35 35 36 36 37 37 38 38 38 37 37 38 38 38
17 18 19 19 20 21 20 20 21 22 23 24 24 24 24 24 24 25 26 27 27 28 29 29 30 30 31 31 32 32 33 34 34 35 35 35 35 35 35 35 35 35 35 35
17 18 19 19 20 20 20 20 21 22 23 23 23 23 23 23 24 24 25 25 26 26 27 28 28 29 29 30 31 31 31 32 32 33 33 33 33 33 33 33 33 33 32 32
16 17 18 19 20 20 20 20 21 22 22 22 23 23 23 23 24 24 24 25 25 25 25 26 26 27 27 28 29 29 29 30 30 30 30 30 31 31 31 31 31 31 31 31
16 16 17 19 20 20 20 20 21 21 22 22 23 23 23 23 23 23 23 23 24 24 24 24 25 25 25 26 26 27 28 28 27 27 27 28 28 28 29 29 29 29 28 28
15 16 17 18 20 21 20 20 20 20 21 22 22 22 22 22 22 22 22 22 23 23 23 23 24 24 25 25 25 25 26 26 26 27 27 27 27 27 27 27 27 27 27 27
16 16 16 17 18 20 21 21 21 21 21 21 22 22 22 22 22 21 22 22 22 22 22 23 23 24 24 24 23 24 24 24 24 25 25 26 25 25 26 26 26 26 27 27
17 17 17 17 19 20 21 21 21 21 21 22 22 22 22 22 22 22 22 22 22 22 22 22 22 22 22 22 23 23 23 23 24 24 25 25 25 25 25 25 26 26 27 27
17 18 18 18 19 21 21 23 22 22 22 22 22 22 22 22 22 23 23 23 23 23 22 22 22 22 22 22 23 23 23 24 24 24 25 24 25 25 26 26 26 26 26 26
Wind_Direction
191 192 197 200 202 205 207 209 212 213 214 216 217 218 219 220 222 223 224 226 228 229 230 231 232 233 234 236 237 238 240 242 244 246 248 250 253 255 258 260 263 266 269 271
187 193 195 198 201 204 206 209 211 213 215 217 218 219 220 221 223 224 225 226 228 230 231 232 233 234 235 237 238 239 241 244 245 247 249 252 254 257 259 261 263 266 269 271
185 190 194 197 199 203 206 209 211 213 216 220 221 222 222 223 224 225 225 226 228 230 232 233 234 234 235 237 239 241 242 244 246 248 250 253 255 257 259 261 263 266 268 271
182 187 192 195 199 202 206 208 211 214 217 221 223 226 224 226 227 227 227 228 229 230 231 233 234 235 237 238 240 241 243 245 246 248 250 252 254 256 259 261 263 266 268 270
183 186 190 193 197 201 206 209 212 216 219 222 224 227 225 228 229 229 230 231 231 231 233 233 235 236 238 240 241 242 244 246 247 249 251 252 254 256 258 260 263 265 267 269
184 188 190 194 198 202 206 209 212 216 220 223 224 228 227 229 231 231 231 232 233 233 234 235 235 237 239 241 242 244 245 246 248 249 251 252 254 256 258 260 262 264 266 268
183 188 193 196 199 203 206 208 212 216 220 224 224 229 227 227 230 231 232 232 232 234 235 235 236 237 239 241 242 244 246 247 249 250 252 253 255 257 259 261 262 264 266 267
187 189 194 198 202 204 207 210 214 219 222 225 226 229 228 226 228 231 232 233 233 234 235 235 236 237 239 241 243 244 246 247 249 250 252 253 255 257 259 260 262 264 266 267
195 196 196 199 204 207 209 212 216 221 225 228 229 230 229 228 229 231 232 234 235 235 236 236 236 237 239 240 242 244 246 248 250 252 253 254 256 257 259 261 262 264 265 266
199 201 203 206 207 209 212 214 217 222 227 230 230 230 231 231 232 233 234 235 237 237 237 237 238 238 239 241 243 245 247 249 250 252 253 254 256 257 259 261 262 264 265 267
206 208 212 212 213 215 214 217 219 224 228 230 232 232 233 235 235 236 238 239 240 240 240 240 241 242 242 243 244 246 248 249 251 252 253 255 256 258 260 262 263 265 266 268
215 218 217 217 219 221 220 221 223 226 229 231 234 234 235 238 238 239 241 242 242 243 243 243 244 244 245 246 247 248 249 251 252 253 255 256 258 259 261 262 264 265 266 268
225 223 224 224 225 225 224 223 227 230 232 233 234 235 237 240 239 239 241 244 245 246 246 247 247 247 247 248 249 250 251 253 254 255 257 258 259 261 263 264 265 265 266 268
231 229 231 233 233 230 227 227 229 232 235 235 235 238 240 241 241 241 243 245 246 248 249 250 251 251 251 251 252 252 253 254 256 257 258 260 261 263 264 265 266 267 267 268
239 238 236 236 236 233 230 231 233 235 238 239 238 241 242 242 242 244 246 247 248 249 251 252 252 253 253 254 255 255 255 256 256 257 259 260 261 263 264 265 265 266 267 268
241 242 241 240 241 238 233 234 236 237 239 243 243 243 243 243 246 248 249 250 250 252 254 255 254 254 255 255 256 257 257 257 258 258 259 259 261 262 263 264 264 264 265 266
243 244 246 246 246 245 240 237 241 242 243 245 245 244 245 247 249 250 251 252 252 254 255 255 255 255 255 256 257 257 258 258 259 260 260 260 261 261 262 262 262 262 263 264
246 246 248 249 247 248 245 242 243 243 244 245 247 247 247 249 249 251 251 251 253 254 255 256 256 256 256 257 257 258 258 259 260 260 260 260 260 261 261 261 260 261 263 264
250 248 249 249 250 249 246 245 245 246 246 247 249 249 249 249 249 249 251 252 254 255 255 256 257 257 257 257 258 258 259 259 260 260 260 260 261 261 260 260 260 261 262 263
253 251 251 249 250 250 248 246 246 247 248 247 249 248 249 250 251 252 253 254 256 256 256 257 257 257 257 258 258 259 260 259 260 260 260 260 261 260 260 261 261 261 261 262
256 255 254 251 250 251 251 251 248 248 249 250 250 250 250 251 252 253 254 255 256 257 257 257 257 257 257 257 257 258 258 258 259 260 261 261 261 261 261 261 261 261 261 261
259 258 258 254 252 251 251 252 250 250 250 250 250 251 251 252 253 254 254 255 256 256 255 255 256 256 256 256 256 256 256 257 258 259 261 262 262 262 262 261 261 261 261 261
261 260 261 257 252 251 251 251 251 251 251 251 251 251 250 251 253 254 254 254 255 255 255 255 255 255 255 255 255 257 257 257 258 260 262 263 262 262 261 261 261 261 261 260
263 262 262 258 254 251 251 252 252 252 251 251 251 250 250 251 252 253 254 255 255 256 255 256 255 255 255 255 256 257 257 258 258 260 261 262 262 262 262 261 261 261 261 261
264 263 262 261 258 255 254 254 253 253 252 252 251 251 251 252 252 252 253 253 255 256 255 255 255 255 255 255 255 256 257 258 260 261 263 263 263 263 263 263 262 262 262 262
268 267 267 266 263 261 258 256 255 255 255 253 252 252 253 253 252 252 252 253 254 255 255 256 255 254 255 255 255 256 258 259 260 262 263 264 264 264 263 263 263 263 263 263